Monroe, MI

2:34 AM EDT on September 25, 2017 (GMT -0400)
Custer

Weather History for KTTF - November, 2010

Change the Weather History Date:

Wednesday, November 10, 2010

  Actual Average Record
Temperature  
Mean Temperature 42 °F -  
Max Temperature 53 °F 51 °F 72 °F (1975)
Min Temperature 32 °F 36 °F 19 °F (2003)
Degree Days  
Heating Degree Days 22    
Moisture  
Dew Point 45 °F    
Average Humidity 97    
Maximum Humidity 100    
Minimum Humidity 82    
Precipitation  
Precipitation 0.00 in - - ()
Sea Level Pressure  
Sea Level Pressure 30.20 in    
Wind  
Wind Speed 3 mph (East)    
Max Wind Speed 13 mph    
Max Gust Speed 17 mph    
Visibility 6 miles    
Events Fog    
Averages and records for this station are not official NWS values.
T = Trace of Precipitation, MM = Missing Value Source: NWS Daily Summary

Daily Weather History Graph

Daily Weather History Graph

Search for Another Location

Airport or City:

Trip Planner

Search our weather history database for the weather conditions in past years. The results will help you decide how hot, cold, wet, or windy it might be!

Date:

Astronomy

Nov. 10, 2010 Rise Set
Actual Time 7:17 AM EST 5:17 PM EST
Civil Twilight 6:47 AM EST 5:47 PM EST
Nautical Twilight 6:14 AM EST 6:20 PM EST
Astronomical Twilight 5:41 AM EST 6:53 PM EST
Moon 11:42 AM EST (11/10) 9:17 PM EST (11/10)
Length of Visible Light 10h 59m
Length of Day
10h 00m
Waxing Crescent, 22% of the Moon is Illuminated
Nov 10
Waxing Crescent
Nov 13
First Quarter
Nov 21
Full
Nov 28
Last Quarter
Dec 5
New

Hourly Weather History & Observations

Time (EST) Temp. Windchill Dew Point Humidity Pressure Visibility Wind Dir Wind Speed Gust Speed Precip Events Conditions
12:14 AM 32.0 °F - 32.0 °F 100% 30.12 in 0.2 mi Calm Calm - N/A Fog Fog
12:34 AM 33.8 °F - 33.8 °F 100% 30.12 in 0.2 mi Calm Calm - N/A Fog Fog
12:53 AM 33.8 °F - 33.8 °F 100% 30.13 in 0.2 mi Calm Calm - N/A Fog Fog
1:14 AM 33.8 °F - 33.8 °F 100% 30.13 in 0.8 mi Calm Calm - N/A   Mostly Cloudy
1:33 AM 33.8 °F - 33.8 °F 100% 30.13 in 1.2 mi Calm Calm - N/A   Mist
1:54 AM 33.8 °F - 33.8 °F 100% 30.14 in 0.8 mi Calm Calm - N/A   Mist
2:14 AM 33.8 °F - 33.8 °F 100% 30.14 in 1.5 mi Calm Calm - N/A   Mist
2:33 AM 33.8 °F - 33.8 °F 100% 30.14 in 0.2 mi Calm Calm - N/A Fog Fog
2:54 AM 33.8 °F - 33.8 °F 100% 30.14 in 0.2 mi Calm Calm - N/A Fog Fog
3:34 AM 33.8 °F - 33.8 °F 100% 30.15 in 0.2 mi Calm Calm - N/A Fog Fog
3:54 AM 35.6 °F - 35.6 °F 100% 30.16 in 0.2 mi Calm Calm - N/A Fog Fog
4:13 AM 39.2 °F - 39.2 °F 100% 30.16 in 0.8 mi Calm Calm - N/A   Overcast
4:34 AM 41.0 °F - 41.0 °F 100% 30.16 in 1.8 mi Calm Calm - N/A   Overcast
4:54 AM 42.8 °F - 42.8 °F 100% 30.17 in 1.8 mi Calm Calm - N/A   Overcast
5:14 AM 42.8 °F - 42.8 °F 100% 30.17 in 1.8 mi Calm Calm - N/A   Overcast
5:33 AM 42.8 °F - 42.8 °F 100% 30.18 in 2.0 mi Calm Calm - N/A   Overcast
5:53 AM 42.8 °F - 42.8 °F 100% 30.18 in 2.0 mi Calm Calm - N/A   Overcast
6:14 AM 42.8 °F - 42.8 °F 100% 30.18 in 2.5 mi Calm Calm - N/A   Overcast
6:34 AM 44.6 °F 43.1 °F 44.6 °F 100% 30.19 in 2.5 mi East 3.5 mph - N/A   Overcast
6:53 AM 44.6 °F 43.1 °F 44.6 °F 100% 30.19 in 4.0 mi East 3.5 mph - N/A   Overcast
7:13 AM 46.4 °F 44.3 °F 46.4 °F 100% 30.20 in 5.0 mi East 4.6 mph - N/A   Overcast
7:33 AM 46.4 °F 42.9 °F 46.4 °F 100% 30.20 in 4.0 mi East 6.9 mph - N/A   Overcast
7:54 AM 46.4 °F 44.3 °F 46.4 °F 100% 30.20 in 4.0 mi East 4.6 mph - N/A   Overcast
8:13 AM 46.4 °F 45.2 °F 46.4 °F 100% 30.21 in 5.0 mi ESE 3.5 mph - N/A   Overcast
8:33 AM 46.4 °F 45.2 °F 46.4 °F 100% 30.22 in 5.0 mi East 3.5 mph - N/A   Overcast
8:54 AM 46.4 °F 43.5 °F 46.4 °F 100% 30.22 in 7.0 mi East 5.8 mph - N/A   Overcast
9:13 AM 48.2 °F - 48.2 °F 100% 30.22 in 7.0 mi ESE 5.8 mph - N/A   Overcast
9:33 AM 48.2 °F - 48.2 °F 100% 30.22 in 10.0 mi East 5.8 mph - N/A   Overcast
9:53 AM 50.0 °F - 50.0 °F 100% 30.22 in 10.0 mi ESE 11.5 mph - N/A   Overcast
10:13 AM 50.0 °F - 50.0 °F 100% 30.22 in 10.0 mi East 9.2 mph - N/A   Overcast
10:34 AM 51.8 °F - 48.2 °F 88% 30.23 in 10.0 mi East 8.1 mph - N/A   Overcast
10:54 AM 51.8 °F - 50.0 °F 94% 30.23 in 10.0 mi ESE 6.9 mph - N/A   Overcast
11:13 AM 51.8 °F - 50.0 °F 94% 30.23 in 10.0 mi East 8.1 mph - N/A   Overcast
11:33 AM 51.8 °F - 50.0 °F 94% 30.23 in 10.0 mi East 9.2 mph - N/A   Overcast
11:53 AM 51.8 °F - 50.0 °F 94% 30.22 in 10.0 mi East 9.2 mph - N/A   Overcast
12:13 PM 51.8 °F - 51.8 °F 100% 30.22 in 10.0 mi East 4.6 mph - N/A   Overcast
12:33 PM 51.8 °F - 51.8 °F 100% 30.22 in 10.0 mi East 10.4 mph - N/A   Overcast
12:53 PM 51.8 °F - 51.8 °F 100% 30.22 in 10.0 mi East 10.4 mph - N/A   Overcast
1:14 PM 51.8 °F - 51.8 °F 100% 30.22 in 10.0 mi East 12.7 mph - N/A   Overcast
1:34 PM 51.8 °F - 51.8 °F 100% 30.22 in 10.0 mi East 8.1 mph - N/A   Overcast
1:53 PM 51.8 °F - 50.0 °F 94% 30.21 in 10.0 mi East 10.4 mph - N/A   Overcast
2:13 PM 53.6 °F - 48.2 °F 82% 30.22 in 10.0 mi ESE 10.4 mph - N/A   Scattered Clouds
2:33 PM 53.6 °F - 48.2 °F 82% 30.22 in 10.0 mi ESE 11.5 mph 16.1 mph N/A   Scattered Clouds
2:54 PM 53.6 °F - 48.2 °F 82% 30.22 in 10.0 mi East 8.1 mph - N/A   Mostly Cloudy
2:56 PM 53.6 °F - 48.2 °F 82% 30.22 in 10.0 mi East 11.5 mph - N/A   Mostly Cloudy
3:34 PM 51.8 °F - 48.2 °F 88% 30.23 in 10.0 mi ESE 8.1 mph 17.3 mph N/A   Mostly Cloudy
3:54 PM 51.8 °F - 48.2 °F 88% 30.24 in 10.0 mi East 6.9 mph - N/A   Scattered Clouds
4:13 PM 50.0 °F - 48.2 °F 94% 30.24 in 10.0 mi East 8.1 mph - N/A   Clear
4:34 PM 50.0 °F - 48.2 °F 94% 30.23 in 10.0 mi East 8.1 mph - N/A   Clear
4:54 PM 50.0 °F - 48.2 °F 94% 30.24 in 10.0 mi ESE 3.5 mph - N/A   Clear
5:14 PM 48.2 °F - 46.4 °F 93% 30.23 in 10.0 mi East 4.6 mph - N/A   Clear
5:34 PM 48.2 °F - 46.4 °F 93% 30.24 in 10.0 mi East 4.6 mph - N/A   Clear
5:54 PM 46.4 °F 45.2 °F 46.4 °F 100% 30.24 in 10.0 mi East 3.5 mph - N/A   Clear
6:14 PM 46.4 °F 43.5 °F 46.4 °F 100% 30.24 in 10.0 mi East 5.8 mph - N/A   Clear
6:34 PM 46.4 °F 44.3 °F 46.4 °F 100% 30.24 in 10.0 mi East 4.6 mph - N/A   Clear
6:54 PM 46.4 °F - 46.4 °F 100% 30.25 in 7.0 mi Calm Calm - N/A   Clear
7:14 PM 44.6 °F 42.2 °F 44.6 °F 100% 30.25 in 7.0 mi ENE 4.6 mph - N/A   Clear
7:34 PM 44.6 °F 42.2 °F 44.6 °F 100% 30.25 in 7.0 mi East 4.6 mph - N/A   Clear
7:54 PM 46.4 °F 43.5 °F 46.4 °F 100% 30.26 in 7.0 mi East 5.8 mph - N/A   Clear
8:14 PM 44.6 °F 43.1 °F 44.6 °F 100% 30.26 in 5.0 mi East 3.5 mph - N/A   Clear
8:34 PM 44.6 °F - 44.6 °F 100% 30.27 in 5.0 mi Calm Calm - N/A   Clear
8:54 PM 41.0 °F - 41.0 °F 100% 30.27 in 3.0 mi Calm Calm - N/A   Clear
9:14 PM 39.2 °F - 39.2 °F 100% 30.28 in 1.8 mi Calm Calm - N/A   Mist
9:34 PM 37.4 °F - 37.4 °F 100% 30.28 in 0.2 mi Calm Calm - N/A Fog Fog
9:54 PM 35.6 °F - 35.6 °F 100% 30.29 in 0.2 mi Calm Calm - N/A Fog Fog
10:14 PM 33.8 °F - 33.8 °F 100% 30.29 in 0.2 mi Calm Calm - N/A Fog Fog
10:34 PM 33.8 °F - 33.8 °F 100% 30.30 in 0.2 mi Calm Calm - N/A Fog Fog
10:54 PM 32.0 °F - 32.0 °F 100% 30.29 in 0.2 mi Calm Calm - N/A Fog Fog
11:14 PM 30.2 °F - 30.2 °F 100% 30.29 in 0.2 mi Calm Calm - N/A Fog Light Freezing Fog
11:34 PM 30.2 °F - 30.2 °F 100% 30.30 in 0.8 mi Calm Calm - N/A   Overcast
11:54 PM 30.2 °F - 30.2 °F 100% 30.29 in 0.2 mi Calm Calm - N/A Fog Light Freezing Fog